(284130) = 2005 UT444

Discovered at Mount Lemmon on 2005-10-30 by Mt. Lemmon Survey.

Orbit

Orbit type: Main Belt

Note: WebGL enabled browser required.

epoch2024-03-31.0
epoch JD2460400.5
perihelion date2023-02-23.89234
perihelion JD2459999.39234
argument of perihelion (°)163.71274
ascending node (°)248.57595
inclination (°)14.00148
eccentricity0.1081462
perihelion distance (AU)2.3753813
Tisserand w.r.t. Jupiter3.3
ΔV w.r.t. Earth (km/sec)10.6
semimajor axis (AU)2.6634202
mean anomaly (°)90.95054
mean daily motion (°/day)0.22674840
aphelion distance (AU)2.951
period (years)4.35
P-vector [x]0.60392656
P-vector [y]0.70162393
P-vector [z]0.37814887
Q-vector [x]-0.76455515
Q-vector [y]0.64402979
Q-vector [z]0.02609672
absolute magnitude16.16
phase slope0.15
uncertainty0
referenceMPEC 2024-C181
observations used462
oppositions12
arc length (days)7181
first opposition used2004
last opposition used2024
residual rms (arc-secs)0.69
perturbers coarse indicatorM-v
perturbers precise indicator003Ek
first observation date used2004-06-17.0
last observation date used2024-02-14.0
computer nameMPCLINUX
JD of orbit computation2456966.890184
perihelion JD uncertainty (days)2.5260E-04
argument of perihelion uncertainty (°)6.0176E-05
ascending node uncertainty (°)2.2145E-05
inclination uncertainty (°)9.0654E-06
eccentricity uncertainty 8.3447E-08
perihelion distance uncertainty (AU)2.4004E-07
Minimum Orbit Intersection Distances (in AU)
for orbit epoch: 2460400.5, reference: E2024-G51
Mercury2.06232
Venus1.65656
Earth1.39053
Mars0.86294
Jupiter2.38523
Saturn6.61603
Uranus15.7246
Neptune27.4725

Observations

473 total observations over interval: 2004 06 17.37596 – 2024 02 14.429354
These data are available for download (format description).

Date (UT) J2000 RA J2000 Dec Magn Location Ref
2004 06 17.37596 20 21 43.65 -04 57 07.6 20.3 V 691 – Steward Observatory, Kitt Peak-Spacewatch MPS 296944
2004 06 17.40380 20 21 42.83 -04 56 58.6 20.6 V 691 – Steward Observatory, Kitt Peak-Spacewatch MPS 296944
2004 06 17.43154 20 21 42.04 -04 56 49.5 20.4 V 691 – Steward Observatory, Kitt Peak-Spacewatch MPS 296944
2005 10 30.42252 04 54 22.17 +25 59 51.0 18.8 V G96 – Mt. Lemmon Survey MPS 151124
2005 10 30.42806 04 54 21.96 +25 59 49.0 18.9 V G96 – Mt. Lemmon Survey MPS 151124
2005 10 30.43913 04 54 21.67 +25 59 44.9 18.8 V G96 – Mt. Lemmon Survey MPS 151124
2005 11 01.33262 04 53 30.12 +25 48 00.2 20.2   704 – Lincoln Laboratory ETS, New Mexico MPS 151124
2005 11 01.34476 04 53 29.76 +25 47 54.6 20.1   704 – Lincoln Laboratory ETS, New Mexico MPS 151124
2005 11 01.35678 04 53 29.38 +25 47 50.6 20.1   704 – Lincoln Laboratory ETS, New Mexico MPS 151124
2005 11 01.36884 04 53 28.96 +25 47 45.8 19.9   704 – Lincoln Laboratory ETS, New Mexico MPS 151124
2005 11 08.33742 04 49 22.03 +25 00 14.7 19.5   704 – Lincoln Laboratory ETS, New Mexico MPS 152316
2005 11 08.35005 04 49 21.45 +25 00 09.4 19.8   704 – Lincoln Laboratory ETS, New Mexico MPS 152316
2005 11 08.37605 04 49 20.27 +24 59 58.3 19.8   704 – Lincoln Laboratory ETS, New Mexico MPS 152316
2005 11 08.38892 04 49 19.83 +24 59 52.3 20.2   704 – Lincoln Laboratory ETS, New Mexico MPS 152316
2005 11 12.42234 04 46 20.52 +24 29 25.6 19.5 V 691 – Steward Observatory, Kitt Peak-Spacewatch MPS 152316
2005 11 12.43989 04 46 19.66 +24 29 16.9 19.4 V 691 – Steward Observatory, Kitt Peak-Spacewatch MPS 152316
2005 11 12.45741 04 46 18.77 +24 29 08.6 19.3 V 691 – Steward Observatory, Kitt Peak-Spacewatch MPS 152316
2005 11 22.20616 04 37 45.21 +23 07 53.7 19.4 V 691 – Steward Observatory, Kitt Peak-Spacewatch MPS 155396
2005 11 22.22350 04 37 44.19 +23 07 44.7 19.4 V 691 – Steward Observatory, Kitt Peak-Spacewatch MPS 155396
2005 11 22.24082 04 37 43.17 +23 07 35.7 19.5 V 691 – Steward Observatory, Kitt Peak-Spacewatch MPS 155396
2005 11 22.31466 04 37 38.77 +23 06 57.2   701 – Junk Bond Observatory, Sierra Vista MPS 152316
2005 11 22.33786 04 37 37.38 +23 06 45.1   701 – Junk Bond Observatory, Sierra Vista MPS 152316
2005 11 22.36105 04 37 36.02 +23 06 32.7   701 – Junk Bond Observatory, Sierra Vista MPS 152316
2005 11 25.38038 04 34 41.16 +22 39 37.4 18.2 V G96 – Mt. Lemmon Survey MPS 152316
2005 11 25.38669 04 34 40.76 +22 39 33.7 18.3 V G96 – Mt. Lemmon Survey MPS 152316
2005 11 25.39301 04 34 40.36 +22 39 30.2 18.3 V G96 – Mt. Lemmon Survey MPS 152316
2005 11 25.39941 04 34 40.04 +22 39 25.9 17.8 V G96 – Mt. Lemmon Survey MPS 152316
2005 11 28.36888 04 31 44.90 +22 12 27.0 18.5 V 703 – Catalina Sky Survey MPS 152316
2005 11 28.37801 04 31 44.36 +22 12 21.4 18.4 V 703 – Catalina Sky Survey MPS 152316
2005 11 28.38710 04 31 43.78 +22 12 17.4 18.4 V 703 – Catalina Sky Survey MPS 152316
2005 11 28.39618 04 31 43.21 +22 12 12.4 18.3 V 703 – Catalina Sky Survey MPS 152316
2005 11 29.26415 04 30 51.90 +22 04 15.2 19.5   704 – Lincoln Laboratory ETS, New Mexico MPS 152316
2005 11 29.27700 04 30 51.22 +22 04 07.6 19.5   704 – Lincoln Laboratory ETS, New Mexico MPS 152316
2005 11 29.29021 04 30 50.40 +22 04 00.4 19.2   704 – Lincoln Laboratory ETS, New Mexico MPS 152316
2005 11 29.30323 04 30 49.59 +22 03 53.6 19.5   704 – Lincoln Laboratory ETS, New Mexico MPS 152316
2005 11 29.31606 04 30 48.84 +22 03 46.1 19.3   704 – Lincoln Laboratory ETS, New Mexico MPS 152316
2005 12 01.26363 04 28 53.59 +21 45 49.2 18.6   704 – Lincoln Laboratory ETS, New Mexico MPS 153832
2005 12 01.27669 04 28 52.79 +21 45 41.9 18.7   704 – Lincoln Laboratory ETS, New Mexico MPS 153832
2005 12 01.28983 04 28 51.99 +21 45 34.7 18.6   704 – Lincoln Laboratory ETS, New Mexico MPS 153833
2005 12 01.30276 04 28 51.17 +21 45 27.2 19.2   704 – Lincoln Laboratory ETS, New Mexico MPS 153833
2005 12 01.31564 04 28 50.37 +21 45 20.5 18.9   704 – Lincoln Laboratory ETS, New Mexico MPS 153833
2005 12 04.25418 04 25 58.03 +21 18 11.6 18.7   704 – Lincoln Laboratory ETS, New Mexico MPS 153833
2005 12 04.25446 04 25 57.97 +21 18 11.7 18.5   704 – Lincoln Laboratory ETS, New Mexico MPS 153833
2005 12 04.26008 04 25 57.67 +21 18 08.9 19.1   704 – Lincoln Laboratory ETS, New Mexico MPS 153833
2005 12 04.26758 04 25 57.20 +21 18 03.8 19.2   704 – Lincoln Laboratory ETS, New Mexico MPS 153833
2005 12 04.26785 04 25 57.21 +21 18 04.1 18.9   704 – Lincoln Laboratory ETS, New Mexico MPS 153833
2005 12 04.27301 04 25 56.78 +21 18 01.3 19.3   704 – Lincoln Laboratory ETS, New Mexico MPS 153833
2005 12 04.28073 04 25 56.43 +21 17 57.4 19.3   704 – Lincoln Laboratory ETS, New Mexico MPS 153833
2005 12 04.28100 04 25 56.38 +21 17 57.3 18.8   704 – Lincoln Laboratory ETS, New Mexico MPS 153833
2005 12 04.28633 04 25 56.02 +21 17 54.3 19.3   704 – Lincoln Laboratory ETS, New Mexico MPS 153833
2005 12 04.29394 04 25 55.59 +21 17 49.7 19.5   704 – Lincoln Laboratory ETS, New Mexico MPS 153833
2005 12 04.29422 04 25 55.60 +21 17 49.5 18.8   704 – Lincoln Laboratory ETS, New Mexico MPS 153833
2005 12 04.29938 04 25 55.24 +21 17 46.9 19.7   704 – Lincoln Laboratory ETS, New Mexico MPS 153833
2005 12 04.30689 04 25 54.81 +21 17 43.0 19.2   704 – Lincoln Laboratory ETS, New Mexico MPS 153833
2005 12 04.30716 04 25 54.79 +21 17 42.6 18.8   704 – Lincoln Laboratory ETS, New Mexico MPS 153833
2005 12 04.31232 04 25 54.45 +21 17 40.3 19.2   704 – Lincoln Laboratory ETS, New Mexico MPS 153833
2005 12 05.24047 04 25 00.82 +21 09 05.6 18.9   704 – Lincoln Laboratory ETS, New Mexico MPS 153833
2005 12 05.24074 04 25 00.85 +21 09 05.3 18.7   704 – Lincoln Laboratory ETS, New Mexico MPS 153833
2005 12 05.25341 04 25 00.05 +21 09 00.0 19.9   704 – Lincoln Laboratory ETS, New Mexico MPS 153833
2005 12 05.25368 04 25 00.15 +21 08 59.2 20.5   704 – Lincoln Laboratory ETS, New Mexico MPS 153833
2005 12 05.26712 04 24 59.14 +21 08 50.2 19.8   704 – Lincoln Laboratory ETS, New Mexico MPS 153833
2005 12 05.27986 04 24 58.48 +21 08 44.3 19.4   704 – Lincoln Laboratory ETS, New Mexico MPS 153833
2005 12 05.28014 04 24 58.48 +21 08 43.7 19.6   704 – Lincoln Laboratory ETS, New Mexico MPS 153833
2005 12 05.28398 04 24 58.33 +21 08 41.4 18.3 R 699 – Lowell Observatory-LONEOS MPS 153833
2005 12 05.29286 04 24 57.72 +21 08 36.4 19.2   704 – Lincoln Laboratory ETS, New Mexico MPS 153833
2005 12 05.29314 04 24 57.72 +21 08 36.6 19.2   704 – Lincoln Laboratory ETS, New Mexico MPS 153833
2005 12 05.30593 04 24 56.92 +21 08 29.3   699 – Lowell Observatory-LONEOS MPS 153833
2005 12 05.32788 04 24 55.66 +21 08 15.6   699 – Lowell Observatory-LONEOS MPS 153833
2005 12 05.34984 04 24 54.31 +21 08 03.4   699 – Lowell Observatory-LONEOS MPS 153833
2005 12 06.18678 04 24 06.72 +21 00 22.3 18.9   704 – Lincoln Laboratory ETS, New Mexico MPS 153833
2005 12 06.19961 04 24 05.92 +21 00 15.7 19.5   704 – Lincoln Laboratory ETS, New Mexico MPS 153833
2005 12 06.21240 04 24 05.06 +21 00 08.0 18.9   704 – Lincoln Laboratory ETS, New Mexico MPS 153833
2005 12 06.22510 04 24 04.33 +21 00 00.7 19.3   704 – Lincoln Laboratory ETS, New Mexico MPS 153833
2005 12 06.23819 04 24 03.58 +20 59 54.0 19.6   704 – Lincoln Laboratory ETS, New Mexico MPS 153833
2005 12 06.25939 04 24 02.28 +20 59 42.6 19.3   704 – Lincoln Laboratory ETS, New Mexico MPS 153833
2005 12 06.27209 04 24 01.56 +20 59 35.6 18.8   704 – Lincoln Laboratory ETS, New Mexico MPS 153833
2005 12 06.28474 04 24 00.84 +20 59 29.5 19.0   704 – Lincoln Laboratory ETS, New Mexico MPS 153833
2005 12 06.29761 04 24 00.02 +20 59 21.9 18.8   704 – Lincoln Laboratory ETS, New Mexico MPS 153833
2005 12 06.31105 04 23 59.19 +20 59 14.2 19.1   704 – Lincoln Laboratory ETS, New Mexico MPS 153833
2005 12 08.19096 04 22 13.28 +20 42 00.9 19.4   704 – Lincoln Laboratory ETS, New Mexico MPS 153833
2005 12 08.21707 04 22 11.78 +20 41 46.1 19.7   704 – Lincoln Laboratory ETS, New Mexico MPS 153833
2005 12 08.22991 04 22 11.06 +20 41 38.8 19.7   704 – Lincoln Laboratory ETS, New Mexico MPS 153833
2005 12 09.28348 04 21 12.73 +20 32 02.6 18.8   704 – Lincoln Laboratory ETS, New Mexico MPS 155396
